Home > Weather > Bismarck > Past weeks

Flag for USA Weather for the Past 2 Weeks in Bismarck, North Dakota, USA

Now
62 °F

Sunny.


Feels Like: 62 °F
Forecast: 43 / 72 °F
Wind: 7 mph from East

Location: Bismarck Municipal Airport

Current Time: May 2, 2016 at 8:54:40 PM

Latest Report: May 2, 2016 at 7:52 PM


Visibility: 10 mi

Pressure: 30.00 "Hg (28.24 "Hg at 513m altitude)

Humidity: 48%

Dew Point: 42 °F

Location of BismarckLocation

Historic Weather in Bismarck — Graph

°F

Bismarck Temperature Yesterday

Maximum temperature yesterday: 65 °F (at 4:52 PM)
Minimum temperature yesterday: 34 °F (at 5:52 AM)
Average temperature yesterday: 50 °F

High & Low Weather Summary for the Past Weeks

 TemperatureHumidityPressure
High72 °F (Apr 23, 1:52 PM)100% (Apr 18, 4:52 PM)30.44 "Hg (Apr 18, 4:52 PM)
Low30 °F (Apr 22, 6:52 AM)25% (Apr 22, 3:52 PM)29.56 "Hg (Apr 24, 2:02 PM)
Average47 °F72%30.04 "Hg
* Reported Apr 17 6:52 PM — May 2 6:52 PM, Bismarck, Weather by CustomWeather, © 2016

Note: Actual official high and low records may vary slightly from our data, if they occured in-between our weather recording intervals... More about our weather records

Advertising

Bismarck Weather History for the Previous 24 Hours

Scroll right to see more
 ConditionsComfort  
Time TempWeatherWind HumidityBarometerVisibility
6:52 PM
Mon, May 2
64 °FSunny.8 mph43%29.98 "Hg10 mi
5:52 PM66 °FScattered clouds.N/A42%29.98 "Hg10 mi
4:52 PM63 °FPartly sunny.10 mph48%29.98 "Hg10 mi
3:52 PM64 °FScattered clouds.5 mph45%29.99 "Hg10 mi
2:52 PM63 °FPassing clouds.5 mph50%30.00 "Hg10 mi
1:52 PM62 °FSunny.9 mph60%30.00 "Hg10 mi
12:52 PM57 °FBroken clouds.13 mph69%30.03 "Hg10 mi
11:52 AM56 °FScattered clouds.13 mph67%30.03 "Hg10 mi
10:52 AM52 °FScattered clouds.7 mph80%30.05 "Hg10 mi
9:52 AM48 °FLight rain. Mostly cloudy.7 mph86%30.02 "Hg10 mi
8:52 AM46 °FRain. Mostly cloudy.3 mph79%30.06 "Hg5 mi
7:52 AM44 °FMostly cloudy.No wind85%30.06 "Hg10 mi
6:52 AM45 °FMostly cloudy.8 mph76%30.07 "Hg10 mi
5:52 AM44 °FOvercast.8 mph76%30.06 "Hg10 mi
4:52 AM46 °FOvercast.3 mph61%30.09 "Hg10 mi
3:52 AM44 °FPassing clouds.No wind63%30.11 "Hg10 mi
2:52 AM43 °FClear.No wind71%30.13 "Hg10 mi
1:52 AM44 °FClear.No wind65%30.15 "Hg10 mi
12:52 AM45 °FClear.3 mph60%30.17 "Hg10 mi
11:52 PM
Sun, May 1
45 °FClear.No wind63%30.18 "Hg10 mi
10:52 PM44 °FClear.No wind65%30.17 "Hg10 mi
9:52 PM49 °FSunny.No wind52%30.18 "Hg10 mi
8:52 PM59 °FSunny.No wind32%30.18 "Hg10 mi
Weather by CustomWeather, © 2016

See weather overviewHow to use our weather pages